Вернуться в каталог

ONEWEB-0673

АктивенСвязьPO
NORAD 55832·PAYLOAD·🇬🇧 United Kingdom

Запущен Mar 9, 2023 с Cape Canaveral Space Force Station

Loading…

Ближайшие Пролёты (ближайшие 24 часа)

TLE

СвежийSource: CelesTrak SupGP

Эпоха: Sep 14, 2026, 16:03 UTC

1 55832C 23029AN  26257.66891618 -.00002503  00000+0 -62600-2 0  2570
2 55832  87.9109 287.1449 0002079  92.8738 328.3435 13.19728625    12

Отслеживайте ONEWEB-0673 в реальном времени с AllMySat

Download on the App Store